This demonstration page uses our WeatherBlox Daily Observations layout. Learn more.

Left ArrowRight Arrow

38.83388, -104.82136

Hourly Observations for August 2, 2022

Temp ( °F °C ) Dew Point ( °F °C ) Humidity (%) Winds ( mph kmh ) Pressure ( in mb ) Visibility ( mi km ) Precip ( " mm )
12:54 am 00:54 Mostly Cloudy 70 21.1 52 11.1 53 53 N 5 7 29.86 1011 10 16 0.00 0.00
1:54 am 01:54 Partly Cloudy 71 21.7 50 10 47 47 NW 5 7 29.85 1011 10 16 0.00 0.00
2:54 am 02:54 Partly Cloudy 71 21.7 50 10 47 47 NNW 5 7 29.84 1011 10 16 0.00 0.00
3:54 am 03:54 Mostly Clear 67 19.4 51 10.6 57 57 NNE 9 15 29.83 1010 10 16 0.00 0.00
4:54 am 04:54 Mostly Clear 65 18.3 51 10.6 61 61 NNE 13 20 29.84 1011 10 16 0.00 0.00
5:54 am 05:54 Mostly Clear 66 18.9 50 10 56 56 NNE 5 7 29.84 1011 10 16 0.00 0.00
6:54 am 06:54 Partly Cloudy 69 20.6 49 9.4 49 49 NW 3 6 29.84 1011 10 16 0.00 0.00
7:54 am 07:54 Partly Cloudy 76 24.4 51 10.6 42 42 NNW 5 7 29.83 1010 10 16 0.00 0.00
8:54 am 08:54 Partly Cloudy 79 26.1 50 10 36 36 NNW 9 15 29.83 1010 10 16 0.00 0.00
9:54 am 09:54 Partly Cloudy 84 28.9 51 10.6 32 32 NW 7 11 29.80 1009 10 16 0.00 0.00
10:54 am 10:54 Partly Cloudy 86 30 47 8.3 26 26 N 17 28 29.81 1009 10 16 0.00 0.00
11:54 am 11:54 Partly Cloudy 88 31.1 49 9.4 26 26 N 13 20 29.79 1009 10 16 0.00 0.00
12:54 pm 12:54 Partly Cloudy 89 31.7 48 8.9 24 24 N 18 30 29.78 1008 10 16 0.00 0.00
1:54 pm 13:54 Partly Cloudy 91 32.8 49 9.4 24 24 N 15 24 29.76 1008 10 16 0.00 0.00
2:54 pm 14:54 Mostly Cloudy 89 31.7 48 8.9 24 24 N 12 19 29.75 1008 10 16 0.00 0.00
3:54 pm 15:54 Mostly Cloudy 88 31.1 50 10 27 27 N 7 11 29.76 1008 10 16 0.00 0.00
4:54 pm 16:54 Mostly Cloudy 89 31.7 52 11.1 28 28 NNW 21 33 29.78 1008 10 16 0.00 0.00
5:54 pm 17:54 Mostly Cloudy 88 31.1 51 10.6 28 28 NNW 9 15 29.77 1008 10 16 0.00 0.00
6:54 pm 18:54 Mostly Cloudy 85 29.4 45 7.2 25 25 NW 20 31 29.76 1008 10 16 0.00 0.00
7:03 pm 19:03 Mostly Cloudy 86 30 44 6.7 23 23 NNW 22 35 29.49 999 10 16 0.00 0.00
7:17 pm 19:17 Mostly Cloudy 85 29.4 45 7.2 25 25 N 18 30 29.49 999 10 16 0.00 0.00
7:54 pm 19:54 Mostly Cloudy 82 27.8 50 10 33 33 NW 21 33 29.78 1008 10 16 0.00 0.00
8:54 pm 20:54 Mostly Cloudy 79 26.1 51 10.6 38 38 NNW 10 17 29.79 1009 10 16 0.00 0.00
9:54 pm 21:54 Mostly Cloudy 74 23.3 52 11.1 46 46 N 14 22 29.81 1010 10 16 0.00 0.00
10:54 pm 22:54 Partly Cloudy 71 21.7 52 11.1 51 51 N 6 9 29.83 1010 10 16 0.00 0.00
11:54 pm 23:54 Mostly Clear 72 22.2 52 11.1 50 50 NNW 12 19 29.85 1011 10 16 0.00 0.00

Powered by AerisWeather